Regional Weather Roundup
Issued by NWS Columbia, SC

Home | Current Version | Previous Version | Text Only | Print | Product List | Glossary On
Versions: 1 2 3 4 5 6 7 8 9 10 11 12 13 14 15 16 17 18 19 20 21 22 23 24 25 26 27
492
ASUS42 KCAE 221810
RWRCAE
REGIONAL WEATHER ROUNDUP
NATIONAL WEATHER SERVICE COLUMBIA SC
200 PM EDT FRI MAY 22 2015

NOTE: "FAIR" INDICATES FEW OR NO CLOUDS BELOW 12,000 FEET WITH NO
SIGNIFICANT WEATHER AND/OR OBSTRUCTIONS TO VISIBILITY.

NOT ALL STATIONS ARE QUALITY CONTROLLED BY THE NATIONAL
WEATHER SERVICE. USE DATA WITH CAUTION...ESPECIALLY
DEWPOINT OBSERVATIONS.

SCZ001>056-GAZ040-063>065-077-221900-
...UPSTATE SOUTH CAROLINA...

CITY           SKY/WX    TMP DP  RH WIND       PRES   REMARKS
ANDERSON       SUNNY     73  47  39 E6        30.21S
6HR MIN TEMP:  59; 6HR MAX TEMP:  75;

LIBERTY        CLEAR     75  44  32 S6        30.21S
6HR MIN TEMP:  51; 6HR MAX TEMP:  76;

SPARTANBURG    SUNNY     73  36  25 CALM      30.22S
CLEMSON        SUNNY     77  42  28 NE7       30.22S
6HR MIN TEMP:  60; 6HR MAX TEMP:  77;

GREENVILLE     SUNNY     72  38  29 VRB3      30.22F
6HR MIN TEMP:  58; 6HR MAX TEMP:  74;

GREENWOOD      MOSUNNY   73  47  39 SE8       30.23S
6HR MIN TEMP:  58; 6HR MAX TEMP:  75;

GREER          SUNNY     73  42  32 VRB3      30.21S
6HR MIN TEMP:  57; 6HR MAX TEMP:  73;

ROCK HILL      SUNNY     72  40  31 N8        30.22S
6HR MIN TEMP:  59; 6HR MAX TEMP:  73;

CHESTER        CLEAR     73  34  23 N9        30.22S
LAURENS        CLEAR     72  54  53 CALM      30.21S


...CENTRAL SOUTH CAROLINA...

CITY           SKY/WX    TMP DP  RH WIND       PRES   REMARKS
COLUMBIA APT   MOSUNNY   75  46  35 VRB5      30.19F
6HR MIN TEMP:  66; 6HR MAX TEMP:  75;

COLUMBIA OWENS SUNNY     75  45  34 CALM      30.20F
6HR MIN TEMP:  65; 6HR MAX TEMP:  77;

DARLINGTON     SUNNY     73  46  38 NE8       30.20F
6HR MIN TEMP:  63; 6HR MAX TEMP:  73;

FLORENCE       SUNNY     75  48  38 MISG      30.19S
6HR MIN TEMP:  64; 6HR MAX TEMP:  75;

MCENTIRE ANGB  MOSUNNY   75  49  40 VRB1      30.19F
6HR MIN TEMP:  63; 6HR MAX TEMP:  75;

ORANGEBURG     SUNNY     75  49  39 VRB5      30.19F
6HR MIN TEMP:  66; 6HR MAX TEMP:  75;

SUMTER SHAW    MOSUNNY   75  47  37 VRB6      30.17F
6HR MIN TEMP:  64; 6HR MAX TEMP:  75;

NEWBERRY       PTCLDY    72  45  37 NE5       30.24S
AIKEN          FAIR      72  43  35 E6        30.23S
BARNWELL       FAIR      75  52  43 N6        30.19F
MANNING        MOCLDY    73  45  35 E6        30.19S
CAMDEN         FAIR      75  46  35 NW10G16   30.20S
LANCASTER      CLEAR     72  41  33 W6        30.21S
WINNSBORO      CLEAR     73  45  35 NE3       30.21S


...EASTERN AND COASTAL SOUTH CAROLINA...

CITY           SKY/WX    TMP DP  RH WIND       PRES   REMARKS
MYRTLE BEACH   PTSUNNY   73  64  73 E10       30.20S
N MYRTLE BCH   CLOUDY    72  54  53 VRB3      30.18S
6HR MIN TEMP:  64; 6HR MAX TEMP:  73;

CONWAY         FAIR      73  52  46 NE5       30.18S
MARION         FAIR      75  46  35 NW6       30.19S
HARTSVILLE     FAIR      75  45  33 N3        30.19S
FLORENCE       SUNNY     75  48  38 MISG      30.19S
6HR MIN TEMP:  64; 6HR MAX TEMP:  75;

DARLINGTON     SUNNY     73  46  38 NE8       30.20F
6HR MIN TEMP:  63; 6HR MAX TEMP:  73;

CHARLESTON APT PTSUNNY   76  55  48 VRB7      30.18R
6HR MIN TEMP:  67; 6HR MAX TEMP:  77;

MOUNT PLEASANT FAIR      73  57  56 E5        30.17S
WALTERBORO     MOCLDY    73  50  43 N9        30.19S
BEAUFORT       PTSUNNY   75  54  47 NE9       30.17S
6HR MIN TEMP:  69; 6HR MAX TEMP:  77;



...EASTERN GEORGIA...

CITY           SKY/WX    TMP DP  RH WIND       PRES   REMARKS
AUGUSTA BUSH F MOSUNNY   76  49  38 CALM      30.18F
6HR MIN TEMP:  64; 6HR MAX TEMP:  76; 6HR PCP: TRACE;

AUGUSTA DANIEL MOSUNNY   77  49  37 E7        30.19F
6HR MIN TEMP:  63; 6HR MAX TEMP:  78;

THOMSON        PTSUNNY   75  57  52 NE6       30.25R
6HR MIN TEMP:  60; 6HR MAX TEMP:  76;

WASHINGTON     FAIR      77  57  50 E5        30.21S
CLAXTON        FAIR      79  63  57 E7        30.15S
SYLVANIA       CLOUDY    76  60  57 SE3       30.18S
6HR MIN TEMP:  64; 6HR MAX TEMP:  79;

STATESBORO     MOSUNNY   78  63  60 NE5       30.16S
6HR MIN TEMP:  62; 6HR MAX TEMP:  79;

SAVANNAH       PTSUNNY   77  58  51 E7        30.16S
6HR MIN TEMP:  65; 6HR MAX TEMP:  78;



...SOUTHERN NORTH CAROLINA...

CITY           SKY/WX    TMP DP  RH WIND       PRES   REMARKS
CHARLOTTE      SUNNY     72  35  25 W8        30.22F
6HR MIN TEMP:  59; 6HR MAX TEMP:  72;

MONROE         SUNNY     71  42  35 VRB3      30.20F
6HR MIN TEMP:  59; 6HR MAX TEMP:  72;

WADESBORO      CLEAR     71  40  32 NW10      30.21S
6HR MIN TEMP:  61; 6HR MAX TEMP:  71;

ROCKINGHAM     CLEAR     70  45  40 W3        30.21R
6HR MIN TEMP:  59; 6HR MAX TEMP:  71;

RUTHERFORDTON  SUNNY     73  37  26 E5        30.22F
6HR MIN TEMP:  55; 6HR MAX TEMP:  74;

ASHEVILLE      SUNNY     68  37  32 VRB7G18   30.24F
6HR MIN TEMP:  52; 6HR MAX TEMP:  68;


$$



USA.gov is the U.S. government's official web portal to all federal, state and local government web resources and services.